Time,TemperatureF,DewpointF,PressureIn,WindDirection,WindDirectionDegrees,WindSpeedMPH,WindSpeedGustMPH,Humidity,HourlyPrecipIn,Conditions,Clouds,dailyrainin,SoftwareType,DateUTC
2013-04-26 00:02:00,50.0,38.0,-100.00,SSE,160,6.0,9.0,62,0.00,,,-99.99,,2013-04-26 05:02:00,
2013-04-26 00:12:00,49.0,37.0,-100.00,SSE,165,4.0,7.0,63,0.00,,,-99.99,,2013-04-26 05:12:00,
2013-04-26 00:22:00,49.0,38.0,-100.00,South,170,4.0,9.0,64,0.00,,,-99.99,,2013-04-26 05:22:00,
2013-04-26 00:32:00,49.0,38.0,-100.00,SSE,165,4.0,9.0,65,0.00,,,-99.99,,2013-04-26 05:32:00,
2013-04-26 00:42:00,49.0,38.0,-100.00,SSE,165,4.0,9.0,65,0.00,,,-99.99,,2013-04-26 05:42:00,
2013-04-26 00:52:00,49.0,38.0,-100.00,South,180,4.0,9.0,64,0.00,,,-99.99,,2013-04-26 05:52:00,
2013-04-26 01:02:00,49.0,38.0,-100.00,South,180,4.0,9.0,64,0.00,,,-99.99,,2013-04-26 06:02:00,
2013-04-26 01:11:00,49.0,38.0,-100.00,South,170,6.0,9.0,65,0.00,,,-99.99,,2013-04-26 06:11:00,
2013-04-26 01:21:00,49.0,38.0,-100.00,SSE,160,4.0,7.0,64,0.00,,,-99.99,,2013-04-26 06:21:00,
2013-04-26 01:32:00,48.0,38.0,-100.00,SSE,160,3.0,6.0,68,0.00,,,-99.99,,2013-04-26 06:32:00,
2013-04-26 01:41:00,48.0,38.0,-100.00,SSE,160,3.0,6.0,68,0.00,,,-99.99,,2013-04-26 06:41:00,
2013-04-26 01:52:00,47.0,38.0,-100.00,South,180,2.0,4.0,70,0.00,,,-99.99,,2013-04-26 06:52:00,
2013-04-26 02:01:00,47.0,38.0,-100.00,South,180,2.0,4.0,70,0.00,,,-99.99,,2013-04-26 07:01:00,
2013-04-26 02:11:00,47.0,38.0,-100.00,South,170,2.0,4.0,70,0.00,,,-99.99,,2013-04-26 07:11:00,
2013-04-26 02:22:00,47.0,39.0,-100.00,SE,125,2.0,3.0,72,0.00,,,-99.99,,2013-04-26 07:22:00,
2013-04-26 02:31:00,47.0,39.0,-100.00,East,95,2.0,4.0,72,0.00,,,-99.99,,2013-04-26 07:31:00,
2013-04-26 02:42:00,47.0,39.0,-100.00,East,95,2.0,4.0,72,0.00,,,-99.99,,2013-04-26 07:42:00,
2013-04-26 02:52:00,48.0,39.0,-100.00,WSW,255,0.0,2.0,72,0.00,,,-99.99,,2013-04-26 07:52:00,
2013-04-26 03:02:00,48.0,39.0,-100.00,WSW,255,0.0,2.0,72,0.00,,,-99.99,,2013-04-26 08:02:00,
2013-04-26 03:11:00,48.0,40.0,-100.00,SSW,200,4.0,7.0,71,0.00,,,-99.99,,2013-04-26 08:11:00,
2013-04-26 03:21:00,49.0,40.0,-100.00,SSW,210,3.0,6.0,69,0.00,,,-99.99,,2013-04-26 08:21:00,
2013-04-26 03:32:00,50.0,40.0,-100.00,South,185,4.0,9.0,67,0.00,,,-99.99,,2013-04-26 08:32:00,
2013-04-26 03:42:00,50.0,40.0,-100.00,South,185,4.0,9.0,67,0.00,,,-99.99,,2013-04-26 08:42:00,
2013-04-26 03:51:00,51.0,40.0,-100.00,South,185,4.0,7.0,68,0.00,,,-99.99,,2013-04-26 08:51:00,
2013-04-26 04:01:00,51.0,40.0,-100.00,South,185,4.0,7.0,68,0.00,,,-99.99,,2013-04-26 09:01:00,
2013-04-26 04:11:00,51.0,40.0,-100.00,South,170,3.0,6.0,68,0.00,,,-99.99,,2013-04-26 09:11:00,
2013-04-26 04:21:00,51.0,40.0,-100.00,South,185,4.0,9.0,66,0.00,,,-99.99,,2013-04-26 09:21:00,
2013-04-26 04:33:00,51.0,40.0,-100.00,SSW,200,6.0,10.0,65,0.00,,,-99.99,,2013-04-26 09:33:00,
2013-04-26 04:42:00,51.0,40.0,-100.00,SSW,200,6.0,10.0,65,0.00,,,-99.99,,2013-04-26 09:42:00,
2013-04-26 04:53:00,52.0,40.0,-100.00,South,175,4.0,11.0,64,0.00,,,-99.99,,2013-04-26 09:53:00,
2013-04-26 05:03:00,52.0,40.0,-100.00,South,175,4.0,11.0,64,0.00,,,-99.99,,2013-04-26 10:03:00,
2013-04-26 05:12:00,51.0,40.0,-100.00,South,185,4.0,9.0,66,0.00,,,-99.99,,2013-04-26 10:12:00,
2013-04-26 05:23:00,51.0,39.0,-100.00,South,190,6.0,13.0,64,0.00,,,-99.99,,2013-04-26 10:23:00,
2013-04-26 05:33:00,50.0,39.0,-100.00,SSW,205,6.0,11.0,66,0.00,,,-99.99,,2013-04-26 10:33:00,
2013-04-26 05:42:00,50.0,39.0,-100.00,SSW,205,6.0,11.0,66,0.00,,,-99.99,,2013-04-26 10:42:00,
2013-04-26 05:52:00,49.0,39.0,-100.00,South,190,6.0,9.0,68,0.00,,,-99.99,,2013-04-26 10:52:00,
2013-04-26 06:02:00,49.0,39.0,-100.00,South,190,6.0,9.0,68,0.00,,,-99.99,,2013-04-26 11:02:00,
2013-04-26 06:11:00,49.0,39.0,-100.00,SSW,200,7.0,11.0,68,0.00,,,-99.99,,2013-04-26 11:11:00,
2013-04-26 06:22:00,49.0,39.0,-100.00,SSW,195,4.0,8.0,68,0.00,,,-99.99,,2013-04-26 11:22:00,
2013-04-26 06:32:00,49.0,40.0,-100.00,South,175,5.0,11.0,69,0.00,,,-99.99,,2013-04-26 11:32:00,
2013-04-26 06:41:00,49.0,40.0,-100.00,South,175,5.0,11.0,69,0.00,,,-99.99,,2013-04-26 11:41:00,
2013-04-26 06:52:00,49.0,40.0,-100.00,South,185,4.0,11.0,69,0.00,,,-99.99,,2013-04-26 11:52:00,
2013-04-26 07:01:00,49.0,40.0,-100.00,South,185,4.0,11.0,69,0.00,,,-99.99,,2013-04-26 12:01:00,
2013-04-26 07:11:00,49.0,40.0,-100.00,SSW,205,3.0,9.0,69,0.00,,,-99.99,,2013-04-26 12:11:00,
2013-04-26 07:21:00,49.0,40.0,-100.00,SSW,205,3.0,7.0,70,0.00,,,-99.99,,2013-04-26 12:21:00,
2013-04-26 07:32:00,50.0,41.0,-100.00,SSW,210,4.0,8.0,69,0.00,,,-99.99,,2013-04-26 12:32:00,
2013-04-26 07:41:00,50.0,41.0,-100.00,SSW,210,4.0,8.0,69,0.00,,,-99.99,,2013-04-26 12:41:00,
2013-04-26 07:52:00,51.0,42.0,-100.00,SW,215,5.0,8.0,70,0.00,,,-99.99,,2013-04-26 12:52:00,
2013-04-26 08:01:00,51.0,42.0,-100.00,SW,215,5.0,8.0,70,0.00,,,-99.99,,2013-04-26 13:01:00,
2013-04-26 08:11:00,51.0,42.0,-100.00,SW,225,7.0,9.0,69,0.00,,,-99.99,,2013-04-26 13:11:00,
2013-04-26 08:21:00,52.0,43.0,-100.00,SSW,210,6.0,9.0,69,0.00,,,-99.99,,2013-04-26 13:21:00,
2013-04-26 08:32:00,55.0,43.0,-100.00,SW,220,11.0,15.0,64,0.00,,,-99.99,,2013-04-26 13:32:00,
2013-04-26 08:41:00,55.0,43.0,-100.00,SW,220,11.0,15.0,64,0.00,,,-99.99,,2013-04-26 13:41:00,
2013-04-26 08:52:00,57.0,44.0,-100.00,SW,225,14.0,22.0,61,0.00,,,-99.99,,2013-04-26 13:52:00,
2013-04-26 09:01:00,57.0,44.0,-100.00,SW,225,14.0,22.0,61,0.00,,,-99.99,,2013-04-26 14:01:00,
2013-04-26 09:11:00,57.0,44.0,-100.00,SW,215,16.0,21.0,60,0.00,,,-99.99,,2013-04-26 14:11:00,
2013-04-26 09:21:00,59.0,45.0,-100.00,SW,225,12.0,21.0,59,0.00,,,-99.99,,2013-04-26 14:21:00,
2013-04-26 09:32:00,61.0,45.0,-100.00,SW,225,21.0,27.0,55,0.00,,,-99.99,,2013-04-26 14:32:00,
2013-04-26 09:41:00,61.0,45.0,-100.00,SW,225,21.0,27.0,55,0.00,,,-99.99,,2013-04-26 14:41:00,
2013-04-26 09:51:00,63.0,46.0,-100.00,SW,230,18.0,27.0,53,0.00,,,-99.99,,2013-04-26 14:51:00,
2013-04-26 10:01:00,63.0,46.0,-100.00,SW,230,18.0,27.0,53,0.00,,,-99.99,,2013-04-26 15:01:00,
2013-04-26 10:12:00,64.0,46.0,-100.00,SW,220,20.0,29.0,53,0.00,,,-99.99,,2013-04-26 15:12:00,
2013-04-26 10:21:00,63.0,46.0,-100.00,SW,225,22.0,29.0,52,0.00,,,-99.99,,2013-04-26 15:21:00,
2013-04-26 10:33:00,64.0,46.0,-100.00,SW,220,21.0,32.0,52,0.00,,,-99.99,,2013-04-26 15:33:00,
2013-04-26 10:42:00,64.0,46.0,-100.00,SW,220,21.0,32.0,52,0.00,,,-99.99,,2013-04-26 15:42:00,
2013-04-26 10:53:00,65.0,47.0,-100.00,SSW,210,22.0,32.0,52,0.00,,,-99.99,,2013-04-26 15:53:00,
2013-04-26 11:03:00,65.0,47.0,-100.00,SSW,210,22.0,32.0,52,0.00,,,-99.99,,2013-04-26 16:03:00,
2013-04-26 11:12:00,65.0,48.0,-100.00,SW,220,21.0,31.0,53,0.00,,,-99.99,,2013-04-26 16:12:00,
2013-04-26 11:23:00,65.0,47.0,-100.00,WSW,240,21.0,32.0,53,0.00,,,-99.99,,2013-04-26 16:23:00,
2013-04-26 11:33:00,65.0,48.0,-100.00,SW,230,21.0,30.0,53,0.00,,,-99.99,,2013-04-26 16:33:00,
2013-04-26 11:42:00,65.0,48.0,-100.00,SW,230,21.0,30.0,53,0.00,,,-99.99,,2013-04-26 16:42:00,
2013-04-26 11:52:00,65.0,48.0,-100.00,SW,215,17.0,29.0,53,0.00,,,-99.99,,2013-04-26 16:52:00,
2013-04-26 12:02:00,65.0,48.0,-100.00,SW,215,17.0,29.0,53,0.00,,,-99.99,,2013-04-26 17:02:00,
2013-04-26 12:12:00,65.0,48.0,-100.00,SW,225,20.0,30.0,53,0.00,,,-99.99,,2013-04-26 17:12:00,
2013-04-26 12:21:00,66.0,49.0,-100.00,SW,220,21.0,28.0,54,0.00,,,-99.99,,2013-04-26 17:21:00,
2013-04-26 12:31:00,68.0,50.0,-100.00,SW,225,21.0,34.0,52,0.00,,,-99.99,,2013-04-26 17:31:00,
2013-04-26 12:41:00,68.0,50.0,-100.00,SW,225,21.0,34.0,52,0.00,,,-99.99,,2013-04-26 17:41:00,
2013-04-26 12:51:00,65.0,49.0,-100.00,SW,215,24.0,35.0,57,0.00,,,-99.99,,2013-04-26 17:51:00,
2013-04-26 13:02:00,65.0,49.0,-100.00,SW,215,24.0,35.0,57,0.00,,,-99.99,,2013-04-26 18:02:00,
2013-04-26 13:11:00,65.0,49.0,-100.00,SW,215,26.0,34.0,55,0.00,,,-99.99,,2013-04-26 18:11:00,
2013-04-26 13:22:00,66.0,49.0,-100.00,SW,220,22.0,32.0,54,0.00,,,-99.99,,2013-04-26 18:22:00,
2013-04-26 13:33:00,66.0,47.0,-100.00,SW,235,21.0,29.0,51,0.00,,,-99.99,,2013-04-26 18:33:00,
2013-04-26 13:41:00,66.0,47.0,-100.00,SW,235,21.0,29.0,51,0.00,,,-99.99,,2013-04-26 18:41:00,
2013-04-26 13:52:00,67.0,49.0,-100.00,SW,215,16.0,25.0,52,0.00,,,-99.99,,2013-04-26 18:52:00,
2013-04-26 14:01:00,67.0,49.0,-100.00,SW,215,16.0,25.0,52,0.00,,,-99.99,,2013-04-26 19:01:00,
2013-04-26 14:11:00,67.0,48.0,-100.00,SW,225,22.0,30.0,50,0.00,,,-99.99,,2013-04-26 19:11:00,
2013-04-26 14:22:00,67.0,49.0,-100.00,SW,225,22.0,27.0,52,0.00,,,-99.99,,2013-04-26 19:22:00,
2013-04-26 14:32:00,67.0,50.0,-100.00,SW,230,17.0,24.0,54,0.00,,,-99.99,,2013-04-26 19:32:00,
2013-04-26 14:41:00,67.0,50.0,-100.00,SW,230,17.0,24.0,54,0.00,,,-99.99,,2013-04-26 19:41:00,
2013-04-26 14:52:00,66.0,51.0,-100.00,SW,220,19.0,26.0,58,0.00,,,-99.99,,2013-04-26 19:52:00,
2013-04-26 15:02:00,66.0,51.0,-100.00,SW,220,19.0,26.0,58,0.00,,,-99.99,,2013-04-26 20:02:00,
2013-04-26 15:11:00,67.0,51.0,-100.00,SW,215,22.0,26.0,56,0.00,,,-99.99,,2013-04-26 20:11:00,
2013-04-26 15:21:00,67.0,51.0,-100.00,WSW,240,10.0,23.0,56,0.00,,,-99.99,,2013-04-26 20:21:00,
2013-04-26 15:32:00,66.0,52.0,-100.00,SW,225,14.0,22.0,60,0.00,,,-99.99,,2013-04-26 20:32:00,
2013-04-26 15:42:00,66.0,52.0,-100.00,SW,225,14.0,22.0,60,0.00,,,-99.99,,2013-04-26 20:42:00,
2013-04-26 15:52:00,66.0,51.0,-100.00,SW,235,11.0,23.0,58,0.00,,,-99.99,,2013-04-26 20:52:00,
2013-04-26 16:01:00,66.0,51.0,-100.00,SW,235,11.0,23.0,58,0.00,,,-99.99,,2013-04-26 21:01:00,
2013-04-26 16:11:00,66.0,51.0,-100.00,SW,230,13.0,21.0,59,0.00,,,-99.99,,2013-04-26 21:11:00,
2013-04-26 16:21:00,65.0,51.0,-100.00,SW,235,14.0,22.0,59,0.00,,,-99.99,,2013-04-26 21:21:00,
2013-04-26 16:33:00,66.0,51.0,-100.00,SW,220,12.0,21.0,58,0.00,,,-99.99,,2013-04-26 21:33:00,
2013-04-26 16:42:00,66.0,51.0,-100.00,SW,220,12.0,21.0,58,0.00,,,-99.99,,2013-04-26 21:42:00,
2013-04-26 16:52:00,67.0,51.0,-100.00,WSW,240,11.0,21.0,56,0.00,,,-99.99,,2013-04-26 21:52:00,
2013-04-26 17:02:00,67.0,51.0,-100.00,WSW,240,11.0,21.0,56,0.00,,,-99.99,,2013-04-26 22:02:00,
2013-04-26 17:12:00,66.0,52.0,-100.00,SW,215,16.0,18.0,60,0.00,,,-99.99,,2013-04-26 22:12:00,
2013-04-26 17:23:00,65.0,52.0,-100.00,WSW,250,11.0,18.0,62,0.00,,,-99.99,,2013-04-26 22:23:00,
2013-04-26 17:33:00,64.0,52.0,-100.00,SW,220,17.0,21.0,63,0.00,,,-99.99,,2013-04-26 22:33:00,
2013-04-26 17:42:00,64.0,52.0,-100.00,SW,220,17.0,21.0,63,0.00,,,-99.99,,2013-04-26 22:42:00,
2013-04-26 17:52:00,64.0,52.0,-100.00,SW,230,16.0,22.0,64,0.00,,,-99.99,,2013-04-26 22:52:00,
2013-04-26 18:02:00,64.0,52.0,-100.00,SW,230,16.0,22.0,64,0.00,,,-99.99,,2013-04-26 23:02:00,
2013-04-26 18:11:00,63.0,51.0,-100.00,SW,220,18.0,22.0,65,0.00,,,-99.99,,2013-04-26 23:11:00,
2013-04-26 18:21:00,63.0,51.0,-100.00,SW,225,17.0,24.0,65,0.00,,,-99.99,,2013-04-26 23:21:00,
2013-04-26 18:32:00,63.0,51.0,-100.00,SW,225,16.0,21.0,66,0.00,,,-99.99,,2013-04-26 23:32:00,
2013-04-26 18:42:00,63.0,51.0,-100.00,SW,225,16.0,21.0,66,0.00,,,-99.99,,2013-04-26 23:42:00,
2013-04-26 18:52:00,62.0,52.0,-100.00,SW,225,16.0,22.0,68,0.00,,,-99.99,,2013-04-26 23:52:00,
2013-04-26 19:01:00,62.0,52.0,-100.00,SW,225,16.0,22.0,68,0.00,,,-99.99,,2013-04-27 00:01:00,
2013-04-26 19:11:00,62.0,52.0,-100.00,SW,220,13.0,21.0,69,0.00,,,-99.99,,2013-04-27 00:11:00,
2013-04-26 19:21:00,62.0,52.0,-100.00,SW,215,14.0,20.0,70,0.00,,,-99.99,,2013-04-27 00:21:00,
2013-04-26 19:32:00,60.0,51.0,-100.00,SW,215,15.0,20.0,72,0.00,,,-99.99,,2013-04-27 00:32:00,
2013-04-26 19:41:00,60.0,51.0,-100.00,SW,215,15.0,20.0,72,0.00,,,-99.99,,2013-04-27 00:41:00,
2013-04-26 19:51:00,59.0,51.0,-100.00,SSW,210,10.0,14.0,75,0.00,,,-99.99,,2013-04-27 00:51:00,
2013-04-26 20:01:00,59.0,51.0,-100.00,SSW,210,10.0,14.0,75,0.00,,,-99.99,,2013-04-27 01:01:00,
2013-04-26 20:12:00,58.0,51.0,-100.00,SSW,205,11.0,16.0,76,0.00,,,-99.99,,2013-04-27 01:12:00,
2013-04-26 20:21:00,58.0,51.0,-100.00,SW,215,10.0,15.0,78,0.00,,,-99.99,,2013-04-27 01:21:00,
2013-04-26 20:32:00,57.0,51.0,-100.00,SSW,210,7.0,12.0,80,0.00,,,-99.99,,2013-04-27 01:32:00,
2013-04-26 20:42:00,56.0,50.0,-100.00,SW,215,7.0,10.0,81,0.00,,,-99.99,,2013-04-27 01:42:00,
2013-04-26 20:52:00,55.0,51.0,-100.00,SW,215,10.0,12.0,83,0.00,,,-99.99,,2013-04-27 01:52:00,
2013-04-26 21:01:00,55.0,51.0,-100.00,SW,215,10.0,12.0,83,0.00,,,-99.99,,2013-04-27 02:01:00,
2013-04-26 21:11:00,55.0,51.0,-100.00,SSW,210,8.0,12.0,83,0.00,,,-99.99,,2013-04-27 02:11:00,
2013-04-26 21:22:00,55.0,50.0,-100.00,SW,215,7.0,11.0,83,0.00,,,-99.99,,2013-04-27 02:22:00,
2013-04-26 21:32:00,53.0,49.0,-100.00,SW,220,6.0,8.0,84,0.00,,,-99.99,,2013-04-27 02:32:00,
2013-04-26 21:42:00,53.0,49.0,-100.00,SW,220,6.0,8.0,84,0.00,,,-99.99,,2013-04-27 02:42:00,
2013-04-26 21:52:00,52.0,49.0,-100.00,SSW,210,4.0,6.0,88,0.00,,,-99.99,,2013-04-27 02:52:00,
2013-04-26 22:02:00,52.0,49.0,-100.00,SSW,210,4.0,6.0,88,0.00,,,-99.99,,2013-04-27 03:02:00,
2013-04-26 22:11:00,52.0,49.0,-100.00,SW,230,4.0,7.0,91,0.00,,,-99.99,,2013-04-27 03:11:00,
2013-04-26 22:22:00,50.0,49.0,-100.00,SW,230,4.0,5.0,93,0.00,,,-99.99,,2013-04-27 03:22:00,
2013-04-26 22:33:00,50.0,49.0,-100.00,SSW,210,3.0,4.0,95,0.00,,,-99.99,,2013-04-27 03:33:00,
2013-04-26 22:42:00,50.0,49.0,-100.00,SSW,210,3.0,4.0,95,0.00,,,-99.99,,2013-04-27 03:42:00,
2013-04-26 22:52:00,49.0,49.0,-100.00,SW,225,2.0,3.0,98,0.00,,,-99.99,,2013-04-27 03:52:00,
2013-04-26 23:02:00,49.0,49.0,-100.00,SW,225,2.0,3.0,98,0.00,,,-99.99,,2013-04-27 04:02:00,
2013-04-26 23:12:00,50.0,50.0,-100.00,SW,225,2.0,3.0,99,0.00,,,-99.99,,2013-04-27 04:12:00,
2013-04-26 23:22:00,50.0,50.0,-100.00,SW,225,4.0,4.0,99,0.00,,,-99.99,,2013-04-27 04:22:00,
2013-04-26 23:33:00,50.0,50.0,-100.00,WSW,255,1.0,4.0,99,0.00,,,-99.99,,2013-04-27 04:33:00,
2013-04-26 23:43:00,50.0,50.0,-100.00,WSW,255,1.0,4.0,99,0.00,,,-99.99,,2013-04-27 04:43:00,
2013-04-26 23:52:00,49.0,49.0,-100.00,SW,220,1.0,2.0,99,0.00,,,-99.99,,2013-04-27 04:52:00,